"Pseudo-MPEC" for P1162To

Created 2020 Sep 17 0:07:34 UT using Find_Orb

Click here for an explanation of pseudo-MPECs

 
 Astrometry: 
     P1162To  C2020 09 14A]TwDP.upYf]$YDa*?m!9q!Xn4^P/A*-?[-'0Wav7AstrometryDF51
     P1162To  C2020 09 14UKBpUb=1U410F%y*V.%:;xO%93fjKeyvao+#fXT(C-B^=P=2F;;@F51
     P1162To  C2020 09 14U6ay;xkgGPE3m#guA\BYTsvfs7[u1j1rixgq@4He!oBBDCceB48rF51
     P1162To  C2020 09 141/6-urmpSF]J@LL+'u'J?Jgjd4\\inF%UA_'hUZhm_.?emauJZy8F51
     P1162To  C2020 09 15ZCI88t^q)YV0Hfk6Y*yRolRVAWkuo%KNDc@rk![H2)hWtGasS0?+F51
     P1162To  C2020 09 15A;b2617T\fy`qRM]T9ABp;C1hvAa[bxN8cfG,lKVDxmR74ta)qrKF51
     P1162To  C2020 09 15mn3)Vi[+\DK)DW)redacted;x#..H-TxjO`tF2En2Q72v^VGgU$JF51
     P1162To ^C2020 09 15.56875001 52 24.216-13 05 49.23   ~9FI7 21.90GVNEOCP568
     P1162To ^C2020 09 15.56969801 52 24.162-13 05 49.60   ~9FI7 21.94GVNEOCP568
     P1162To ^C2020 09 15.57064601 52 24.108-13 05 49.95   ~9FI7 22.00GVNEOCP568
     P1162To  C2020 09 16-[X)?r^bgX\gj\5qnfbJx^./+OcS%DfclickA(_9@#-58NNdQwP9F51
     P1162To  C2020 09 16G)w08\90EhereG5C3WKrJkPRes'EGkPDuCF$tVpVIUpy]MJVQ`2HF51
     P1162To  C2020 09 16%+O%,tUfor+JSQ(explanationMay*0%_'u8dctTYZf':K1?W_NbF51
     P1162To  C2020 09 16/'m8UTk9eJRFFkdT_0gsPng!Y,3s[O\Ctqw?dj=bj.MlfW)9-Q'/F51

Station data:
(568) Mauna Kea  (N19.826116 W155.472200)  US/Hawaii.
(F51) Pan-STARRS 1, Haleakala  (N20.707235 W156.255910)  US/Hawaii.
   Observers N. Primak, A. Schultz, S. Watters, J. Thiel, T. Goggia. Measurer
   PS1 Science Consortium. 1.8-m Ritchey-Chrétien + CCD.

Orbital elements:  P1162To
   Perihelion 2019 Nov 30.656411 +/- 34 TT = 15:45:13 (JD 2458818.156411)
Epoch 2020 Sep 16.0 TT = JDT 2459108.5   Earth MOID: 0.5525   Ma: 0.0610
M 107.00725676 +/- 15               (J2000 ecliptic)          AutoNEOCP
n   0.36855388 +/- 0.0102           Peri.  173.12155 +/- 9
a   1.92664658 +/- 0.0355           Node    67.85591 +/- 1.8
e   0.1878278 +/- 0.0166            Incl.   14.69222 +/- 0.46
P   2.67/976.77d           H 19.7   G  0.15   U  9.7  
q 1.56476868 +/- 0.00567    Q 2.28852447 +/- 0.0737
From 14 observations 2020 Sept. 14-16; mean residual 0".06
Residuals in arcseconds: 
200914 F51  .22-  .09-    200915 F51  .10+  .04-    200916 F51  .05-  .02+    
200914 F51  .09+  .05+    200915 F51  .02-  .02+    200916 F51  .00   .01-    
200914 F51  .08+  .02+    200915 568  .03+  .00     200916 F51  .05-  .03+    
200914 F51  .05+  .04+    200915 568  .00   .02-    200916 F51  .08+  .02-    
200915 F51  .06-  .02+    200915 568  .02-  .01-    

Ephemerides (geocentric):
Date (UTC) HH   RA              Dec         delta   r     elong  mag " sig PA
---- -- -- --  -------------   -----------  ------ ------ -----  --- ---- ---
2020 09 17 00  01 51 07.565   -13 14 41.34  1.1831 2.0907 145.5 22.5 .408 165
2020 09 17 01  01 51 05.267   -13 14 56.78  1.1830 2.0908 145.6 22.5 .432 164
2020 09 17 02  01 51 02.965   -13 15 12.21  1.1829 2.0909 145.6 22.5 .456 164
2020 09 17 03  01 51 00.660   -13 15 27.62  1.1828 2.0910 145.7 22.5 .481 163
2020 09 17 04  01 50 58.351   -13 15 43.03  1.1826 2.0911 145.7 22.5 .507 163
2020 09 17 05  01 50 56.038   -13 15 58.42  1.1825 2.0911 145.7 22.5 .533 162
2020 09 17 06  01 50 53.723   -13 16 13.81  1.1824 2.0912 145.8 22.5 .561 162
2020 09 17 07  01 50 51.403   -13 16 29.18  1.1823 2.0913 145.8 22.5 .588 162
2020 09 17 08  01 50 49.081   -13 16 44.55  1.1821 2.0914 145.8 22.5 .617 161
2020 09 17 09  01 50 46.754   -13 16 59.90  1.1820 2.0915 145.9 22.5 .646 161
2020 09 17 10  01 50 44.425   -13 17 15.24  1.1819 2.0915 145.9 22.5 .676 161
2020 09 17 11  01 50 42.091   -13 17 30.58  1.1818 2.0916 145.9 22.5 .707 161
2020 09 17 12  01 50 39.755   -13 17 45.90  1.1817 2.0917 146.0 22.5 .738 160
2020 09 17 13  01 50 37.414   -13 18 01.21  1.1815 2.0918 146.0 22.5 .770 160
2020 09 17 14  01 50 35.071   -13 18 16.51  1.1814 2.0919 146.1 22.5 .803 160
2020 09 17 15  01 50 32.724   -13 18 31.80  1.1813 2.0919 146.1 22.5 .836 160
2020 09 17 16  01 50 30.373   -13 18 47.07  1.1812 2.0920 146.1 22.5 .871 160
2020 09 17 17  01 50 28.019   -13 19 02.34  1.1811 2.0921 146.2 22.5 .905 159
2020 09 17 18  01 50 25.661   -13 19 17.60  1.1810 2.0922 146.2 22.5 .941 159
2020 09 17 19  01 50 23.301   -13 19 32.84  1.1808 2.0923 146.2 22.5 .977 159
2020 09 17 20  01 50 20.936   -13 19 48.07  1.1807 2.0923 146.3 22.5 1.01 159
2020 09 17 21  01 50 18.568   -13 20 03.30  1.1806 2.0924 146.3 22.5 1.05 159
2020 09 17 22  01 50 16.197   -13 20 18.51  1.1805 2.0925 146.4 22.5 1.09 159
2020 09 17 23  01 50 13.822   -13 20 33.71  1.1804 2.0926 146.4 22.5 1.13 159
2020 09 18 00  01 50 11.444   -13 20 48.90  1.1803 2.0926 146.4 22.5 1.17 159
2020 09 18 01  01 50 09.063   -13 21 04.07  1.1801 2.0927 146.5 22.5 1.21 159
2020 09 18 02  01 50 06.678   -13 21 19.24  1.1800 2.0928 146.5 22.5 1.25 159
2020 09 18 03  01 50 04.289   -13 21 34.39  1.1799 2.0929 146.5 22.5 1.29 159
2020 09 18 04  01 50 01.898   -13 21 49.53  1.1798 2.0930 146.6 22.5 1.33 158
2020 09 18 05  01 49 59.502   -13 22 04.66  1.1797 2.0930 146.6 22.5 1.38 158
2020 09 18 06  01 49 57.104   -13 22 19.78  1.1796 2.0931 146.6 22.5 1.42 158
2020 09 18 07  01 49 54.702   -13 22 34.89  1.1795 2.0932 146.7 22.5 1.46 158
2020 09 18 08  01 49 52.296   -13 22 49.98  1.1794 2.0933 146.7 22.5 1.51 158
2020 09 18 09  01 49 49.888   -13 23 05.06  1.1792 2.0934 146.8 22.5 1.55 158
2020 09 18 10  01 49 47.475   -13 23 20.13  1.1791 2.0934 146.8 22.5 1.60 158
2020 09 18 11  01 49 45.060   -13 23 35.19  1.1790 2.0935 146.8 22.5 1.65 158
2020 09 18 12  01 49 42.641   -13 23 50.24  1.1789 2.0936 146.9 22.5 1.69 158
2020 09 18 13  01 49 40.219   -13 24 05.27  1.1788 2.0937 146.9 22.5 1.74 158
2020 09 18 14  01 49 37.793   -13 24 20.30  1.1787 2.0938 146.9 22.5 1.79 158
2020 09 18 15  01 49 35.364   -13 24 35.31  1.1786 2.0938 147.0 22.5 1.84 158
2020 09 18 16  01 49 32.932   -13 24 50.30  1.1785 2.0939 147.0 22.5 1.89 158
2020 09 18 17  01 49 30.496   -13 25 05.29  1.1784 2.0940 147.1 22.5 1.94 158
2020 09 18 18  01 49 28.057   -13 25 20.26  1.1783 2.0941 147.1 22.5 1.99 158
2020 09 18 19  01 49 25.614   -13 25 35.22  1.1781 2.0942 147.1 22.5 2.05 158
2020 09 18 20  01 49 23.169   -13 25 50.17  1.1780 2.0942 147.2 22.5 2.10 158
2020 09 18 21  01 49 20.720   -13 26 05.11  1.1779 2.0943 147.2 22.5 2.15 158
2020 09 18 22  01 49 18.267   -13 26 20.03  1.1778 2.0944 147.2 22.5 2.21 158
2020 09 18 23  01 49 15.811   -13 26 34.94  1.1777 2.0945 147.3 22.5 2.26 158